Home   Weather   Gerasdorf bei Wien   Past weeks

Flag for Austria Past Weather in Gerasdorf bei Wien, Lower Austria, Austria — Yesterday and Last 2 Weeks

Now
55 °F

Overcast.


Feels Like: 55 °F
Forecast: 34 / 60 °F
Wind: 3 mph from Northwest

Location: Wien / Hohe Warte

Current Time: Apr 29, 2017 at 5:32:14 pm

Latest Report: Apr 29, 2017 at 5:00 pm


Visibility: 16 mi

Pressure: 30.04 "Hg

Humidity: 50%

Dew Point: 36 °F

Location of Gerasdorf bei WienLocation

Past Weather in Gerasdorf bei Wien — Graph

°F

Gerasdorf bei Wien Temperature Yesterday

Maximum temperature yesterday: 44 °F (at 3:00 pm)
Minimum temperature yesterday: 40 °F (at 8:00 am)
Average temperature yesterday: 42 °F

High & Low Weather Summary for the Past Weeks

 TemperatureHumidityPressure
High70 °F (Apr 25, 3:00 pm)97% (Apr 17, 11:00 pm)30.50 "Hg (Apr 17, 11:00 pm)
Low34 °F (Apr 19, 8:00 am)35% (Apr 16, 12:00 pm)29.65 "Hg (Apr 25, 7:00 pm)
Average47 °F69%30.03 "Hg
* Reported Apr 14 4:00 pm — Apr 29 4:00 pm, Gerasdorf bei Wien, Weather by CustomWeather, © 2017

Note: Actual official high and low records may vary slightly from our data, if they occured in-between our weather recording intervals... More about our weather records

Advertising

Gerasdorf bei Wien Weather History for the Previous 24 Hours

Scroll right to see more
 ConditionsComfort  
Time TempWeatherWind HumidityBarometerVisibility
4:00 pm
Sat, Apr 29
55 °FOvercast.3 mph48%30.03 "Hg16 mi
3:00 pm55 °FPartly sunny.5 mph45%30.03 "Hg16 mi
2:00 pm56 °FPartly sunny.5 mph50%30.04 "Hg12 mi
1:00 pm55 °FPartly sunny.5 mph52%30.05 "Hg11 mi
12:00 pm54 °FScattered clouds.5 mph55%30.07 "Hg11 mi
11:00 am52 °FPassing clouds.5 mph59%30.08 "Hg11 mi
10:00 am50 °FPassing clouds.5 mph64%30.08 "Hg11 mi
9:00 am47 °FPassing clouds.6 mph70%30.08 "Hg11 mi
8:00 am44 °FPassing clouds.8 mph76%30.07 "Hg9 mi
7:00 am41 °FPassing clouds.7 mph82%30.07 "Hg12 mi
6:00 am39 °FChilly.6 mph85%30.06 "HgN/A
5:00 am40 °FChilly.5 mph85%30.04 "HgN/A
4:00 am40 °FChilly.6 mph85%30.02 "HgN/A
3:00 am41 °FQuite cool.8 mph81%30.00 "HgN/A
2:00 am41 °FPassing clouds.8 mph82%29.99 "Hg16 mi
1:00 am41 °FQuite cool.7 mph83%29.99 "HgN/A
12:00 am41 °FQuite cool.5 mph82%29.98 "HgN/A
11:00 pm
Fri, Apr 28
41 °FOvercast.8 mph83%29.93 "Hg19 mi
10:00 pm41 °FQuite cool.7 mph83%29.92 "HgN/A
9:00 pm42 °FQuite cool.6 mph84%29.90 "HgN/A
8:00 pm43 °FQuite cool.3 mph80%29.87 "HgN/A
7:00 pm43 °FOvercast.6 mph82%29.85 "Hg22 mi
6:00 pm43 °FOvercast.5 mph84%29.83 "Hg25 mi
5:00 pm43 °FOvercast.3 mph85%29.83 "Hg25 mi
Weather by CustomWeather, © 2017

See weather overviewHow to use our weather pages